Regional Weather Roundup
Issued by NWS

Home | Current Version | Previous Version | Graphics & Text | Print | Product List | Glossary Off
Versions: 1 2 3 4 5 6 7 8 9 10 11 12 13 14 15 16 17 18 19 20 21 22 23 24 25 26 27 28 29 30 31 32 33 34 35 36 37 38 39 40 41 42 43 44 45 46 47 48 49 50

000
ASUS43 KDMX 211406
RWRIA

WEATHER ROUNDUP FOR IOWA
NATIONAL WEATHER SERVICE DES MOINES IA
900 AM CDT MON MAY 21 2018

NOTE: "FAIR" INDICATES FEW OR NO CLOUDS BELOW 12,000 FEET WITH NO
SIGNIFICANT WEATHER AND/OR OBSTRUCTIONS TO VISIBILITY.

* - THESE STATIONS ARE NOT NWS STATIONS...THUS NOT UNDER NWS
QUALITY CONTROL.  THEY ALSO DO NOT REPORT WEATHER SUCH
AS PRECIPITATION OR FOG.

IAZ001>003-012>014-020>022-031>034-043>046-211500-
   NORTHWEST IOWA

CITY           SKY/WX    TMP DP  RH WIND       PRES   REMARKS
CARROLL *      CLOUDY   N/A N/A N/A S6        30.04S FOG
CHEROKEE *     CLOUDY    56  56 100 S5        30.05R FOG
DENISON *      FOG       57  57 100 CALM      30.06S VSB 1/4
LE MARS *      CLOUDY    57  57 100 SE3       30.04S FOG
ORANGE CITY *  FOG       57  57 100 SE6       30.05S VSB 3/4
SHELDON *      CLOUDY    55  55 100 SE8       30.04R FOG
SIOUX CITY     CLOUDY    56  55  97 NW8       30.04S FOG
SPENCER        CLOUDY    57  55  93 S6        30.05S FOG
STORM LAKE *   FOG       55  55 100 SE7       30.04F VSB<1/4
$$

IAZ055>058-069>071-079>083-090>094-211500-
   SOUTHWEST IOWA

CITY           SKY/WX    TMP DP  RH WIND       PRES   REMARKS
ATLANTIC *     CLOUDY    61  59  94 CALM      30.04S FOG
AUDUBON *      FOG       57  55  94 CALM      30.05S VSB 1/2
CLARINDA *     CLOUDY    61  59  94 W8        30.06S FOG
COUNCIL BLFS * FOG       57  57 100 NW7       30.05S VSB 3/4
CRESTON *      FOG       59  59 100 W5        30.05S VSB 1/2
HARLAN  *      FOG       59  59 100 CALM      30.07S VSB 3/4
LAMONI         CLOUDY    60  59  96 NW8       30.03R FOG
RED OAK *      CLOUDY    61  59  94 NW8       30.04S FOG
SHENANDOAH *   CLOUDY    57  57 100 W6        30.06S FOG
$$

IAZ047>049-059>061-072>074-084-211500-
   CENTRAL IOWA

CITY           SKY/WX    TMP DP  RH WIND       PRES   REMARKS
AMES           CLOUDY    58  56  93 E6        30.03S
ANKENY *       CLOUDY    59  57  94 CALM      30.03S
BOONE *        CLOUDY    57  57 100 E6        30.03R FOG
CHARITON *     CLOUDY    59  59 100 N5        30.01S FOG
DES MOINES     CLOUDY    60  58  92 E3        30.02R FOG
GRINNELL*      CLOUDY    56  55  95 E10       30.03S FOG
KNOXVILLE *    FOG       59  59 100 NE3       30.00S VSB 3/4
MARSHALLTOWN   CLOUDY    56  56 100 E12       30.03R
NEWTON *       CLOUDY    57  57 100 E9        30.02S FOG
PELLA *        CLOUDY    58  57  98 CALM      30.03S FOG
PERRY *        CLOUDY    59  59  98 SE3       30.04R FOG
$$

IAZ004>006-015-016-023>025-035-036-211500-
   NORTH CENTRAL IOWA

CITY           SKY/WX    TMP DP  RH WIND       PRES   REMARKS
ALGONA *       CLOUDY    57  55  94 SE8       30.06R FOG
CLARION *      CLOUDY    57  55  94 E12       30.04F FOG
ESTHERVILLE    CLOUDY    55  55 100 SE9       30.05S FOG
FORT DODGE *   CLOUDY    57  56  96 E8        30.05S FOG
MASON CITY     CLOUDY    56  54  93 SE7       30.07S
FOREST CITY *  CLOUDY    55  55 100 E7        30.06S
WEBSTER CITY * CLOUDY    57  57 100 E7        30.03R
IOWA FALLS *   CLOUDY    56  55  95 E8        30.05S FOG
$$

IAZ007>011-017>019-026>030-037>042-050>054-066-211500-
   NORTHEAST IOWA

CITY           SKY/WX    TMP DP  RH WIND       PRES   REMARKS
CEDAR RAPIDS   LGT RAIN  55  54  96 E13       30.03F FOG
CHARLES CITY * CLOUDY    54  52  94 E9        30.06S
CLINTON *      CLOUDY    55  54  96 E10       30.08F
DECORAH *      LGT RAIN  52  52 100 E8        30.07S
DUBUQUE        FOG       52  51  97 NE10      30.06F VSB 1/4
MONTICELLO *   CLOUDY    55  55 100 E9        30.06R
OELWEIN *      LGT RAIN  54  52  94 E12       30.06S
WATERLOO       CLOUDY    54  54 100 E9        30.04S
$$

IAZ064-065-067-068-078-211500-
   EAST CENTRAL IOWA

CITY           SKY/WX    TMP DP  RH WIND       PRES   REMARKS
DAVENPORT      CLOUDY    56  54  93 E12       30.08F FOG
IOWA CITY      LGT RAIN  56  54  93 E10       30.05S FOG
MT. PLEASANT * CLOUDY    59  59 100 SE9       30.03S FOG
MUSCATINE *    CLOUDY    57  55  94 E8        30.04F FOG
QUAD CITIES    LGT RAIN  58  55  90 E9        30.05F
$$

IAZ062-063-075>077-085>089-095>099-211500-
   SOUTHEAST IOWA

CITY           SKY/WX    TMP DP  RH WIND       PRES   REMARKS
BURLINGTON     CLOUDY    61  59  93 E8        30.03S FOG
FAIRFIELD *    CLOUDY    61  61 100 SE10      30.01S FOG
FORT MADISON * CLOUDY    63  63 100 E6        30.04S FOG
KEOKUK *       CLOUDY    64  64 100 SE5       30.02S FOG
OSKALOOSA *    CLOUDY    58  57  99 E10       30.02R FOG
CENTERVILLE *    N/A     63  63 100 SW8       30.02R
OTTUMWA        CLOUDY    60  59  96 E9        30.01R FOG
WASHINGTON *   CLOUDY    59  59 100 E10       30.04R FOG
$$

ABBREVIATIONS USED IN REMARKS
   TC - TEMPERATURES IN CELSIUS
  WCI - WIND CHILL INDEX
   HX - HEAT INDEX
  VSB - VISIBILITY
$$





USA.gov is the U.S. government's official web portal to all federal, state and local government web resources and services.